• In Uzbekistan
  • List of Countries
  • For 7 days
  • Water Temperature
  • Satellite Maps
  • Weather Map
  • Weather Widgets
  • user-avatar
    Login

    Hourly Weather Sankt Polten

    Today, 23 September, Saturday

    Time Temperature Precipitation Wind Pressure Humidity
    00:00 +10°C° 0 mm 1 mps 740 mmHg 89%
    01:00 +10°C° 0 mm 1 mps 740 mmHg 89%
    02:00 +10°C° 0 mm 1 mps 740 mmHg 90%
    03:00 +10°C° 0 mm 1 mps 740 mmHg 91%
    04:00 +8°C° 0 mm 2 mps 740 mmHg 91%
    05:00 +9°C° 0 mm 2 mps 740 mmHg 90%
    06:00 +9°C° 0 mm 2 mps 740 mmHg 88%
    07:00 +10°C° 0 mm 2 mps 740 mmHg 86%
    08:00 +13°C° 0 mm 2 mps 740 mmHg 79%
    09:00 +14°C° 0 mm 3 mps 739 mmHg 71%
    10:00 +17°C° 0 mm 3 mps 739 mmHg 63%
    11:00 +18°C° 0 mm 3 mps 739 mmHg 60%
    12:00 +18°C° 0 mm 3 mps 739 mmHg 57%
    13:00 +19°C° 0 mm 4 mps 739 mmHg 55%
    14:00 +19°C° 0.1 mm 3 mps 738 mmHg 59%
    15:00 +18°C° 0.1 mm 3 mps 738 mmHg 64%
    16:00 +17°C° 0.1 mm 2 mps 738 mmHg 68%
    17:00 +16°C° 0.2 mm 2 mps 738 mmHg 76%
    18:00 +14°C° 0.2 mm 2 mps 738 mmHg 83%
    19:00 +12°C° 0.2 mm 2 mps 738 mmHg 90%
    20:00 +12°C° 0.1 mm 2 mps 738 mmHg 91%
    21:00 +12°C° 0.1 mm 2 mps 739 mmHg 91%
    22:00 +12°C° 0.1 mm 1 mps 739 mmHg 92%
    23:00 +11°C° 0 mm 1 mps 739 mmHg 92%

    Tomorrow, 24 September, Sunday

    Time Temperature Precipitation Wind Pressure Humidity
    00:00 +11°C° 0 mm 1 mps 739 mmHg 92%
    01:00 +11°C° 0 mm 1 mps 738 mmHg 93%
    02:00 +11°C° 0.1 mm 1 mps 738 mmHg 93%
    03:00 +11°C° 0.1 mm 1 mps 738 mmHg 93%
    04:00 +11°C° 0.1 mm 1 mps 738 mmHg 93%
    05:00 +11°C° 0.1 mm 1 mps 739 mmHg 92%
    06:00 +11°C° 0.1 mm 1 mps 739 mmHg 91%
    07:00 +12°C° 0.1 mm 1 mps 739 mmHg 90%
    08:00 +13°C° 0.2 mm 1 mps 739 mmHg 84%
    09:00 +14°C° 0.2 mm 1 mps 739 mmHg 78%
    10:00 +16°C° 0.2 mm 1 mps 739 mmHg 73%
    11:00 +18°C° 0.1 mm 1 mps 739 mmHg 70%
    12:00 +17°C° 0.1 mm 2 mps 739 mmHg 68%
    13:00 +18°C° 0.1 mm 2 mps 739 mmHg 65%
    14:00 +18°C° 0 mm 2 mps 739 mmHg 66%
    15:00 +18°C° 0 mm 1 mps 739 mmHg 68%
    16:00 +18°C° 0 mm 1 mps 738 mmHg 69%
    17:00 +16°C° 0 mm 1 mps 739 mmHg 77%
    18:00 +14°C° 0 mm 1 mps 739 mmHg 84%
    19:00 +11°C° 0 mm 0 mps 739 mmHg 92%
    20:00 +11°C° 0 mm 0 mps 739 mmHg 93%
    21:00 +11°C° 0 mm 1 mps 739 mmHg 93%
    22:00 +11°C° 0 mm 1 mps 739 mmHg 94%
    23:00 +11°C° 0 mm 1 mps 739 mmHg 94%

    Day after tomorrow, 25 September, Monday

    Time Temperature Precipitation Wind Pressure Humidity
    00:00 +10°C° 0 mm 0 mps 739 mmHg 94%
    01:00 +10°C° 0 mm 0 mps 739 mmHg 94%
    02:00 +9°C° 0 mm 0 mps 739 mmHg 94%
    03:00 +9°C° 0 mm 0 mps 739 mmHg 95%
    04:00 +9°C° 0 mm 0 mps 739 mmHg 95%
    05:00 +9°C° 0 mm 0 mps 739 mmHg 94%
    06:00 +10°C° 0 mm 0 mps 739 mmHg 92%
    07:00 +10°C° 0 mm 0 mps 739 mmHg 91%
    08:00 +13°C° 0 mm 1 mps 739 mmHg 85%
    09:00 +15°C° 0 mm 1 mps 739 mmHg 78%
    10:00 +18°C° 0 mm 1 mps 740 mmHg 72%
    11:00 +17°C° 0 mm 2 mps 739 mmHg 69%
    12:00 +18°C° 0 mm 2 mps 739 mmHg 66%
    13:00 +19°C° 0 mm 2 mps 739 mmHg 64%
    14:00 +18°C° 0 mm 3 mps 739 mmHg 65%
    15:00 +18°C° 0 mm 3 mps 739 mmHg 67%
    16:00 +18°C° 0 mm 3 mps 739 mmHg 69%
    17:00 +16°C° 0 mm 2 mps 739 mmHg 77%
    18:00 +15°C° 0 mm 2 mps 739 mmHg 84%
    19:00 +13°C° 0 mm 2 mps 739 mmHg 92%
    20:00 +13°C° 0 mm 2 mps 740 mmHg 92%
    21:00 +12°C° 0 mm 2 mps 740 mmHg 93%
    22:00 +12°C° 0 mm 1 mps 740 mmHg 94%
    23:00 +11°C° 0 mm 1 mps 740 mmHg 94%

    26 September, Tuesday

    Time Temperature Precipitation Wind Pressure Humidity
    00:00 +11°C° 0 mm 1 mps 740 mmHg 94%
    01:00 +11°C° 0 mm 1 mps 740 mmHg 94%
    02:00 +11°C° 0 mm 1 mps 740 mmHg 94%
    03:00 +11°C° 0 mm 1 mps 740 mmHg 94%
    04:00 +11°C° 0 mm 1 mps 739 mmHg 95%
    05:00 +11°C° 0.2 mm 1 mps 739 mmHg 94%
    06:00 +11°C° 0.2 mm 1 mps 740 mmHg 93%
    07:00 +12°C° 0.2 mm 1 mps 740 mmHg 93%
    08:00 +13°C° 0.5 mm 1 mps 740 mmHg 89%
    09:00 +14°C° 0.5 mm 2 mps 740 mmHg 85%
    10:00 +16°C° 0.5 mm 2 mps 740 mmHg 81%
    11:00 +17°C° 0 mm 2 mps 740 mmHg 78%
    12:00 +17°C° 0 mm 2 mps 739 mmHg 76%
    13:00 +18°C° 0 mm 2 mps 739 mmHg 74%
    14:00 +18°C° 0 mm 3 mps 739 mmHg 73%
    15:00 +19°C° 0 mm 3 mps 739 mmHg 73%
    16:00 +19°C° 0 mm 3 mps 739 mmHg 72%
    17:00 +17°C° 0.1 mm 2 mps 739 mmHg 78%
    18:00 +16°C° 0.1 mm 2 mps 739 mmHg 85%
    19:00 +14°C° 0.1 mm 2 mps 740 mmHg 91%
    20:00 +14°C° 0.1 mm 1 mps 740 mmHg 92%
    21:00 +13°C° 0.1 mm 1 mps 740 mmHg 92%
    22:00 +13°C° 0.1 mm 1 mps 740 mmHg 92%
    23:00 +13°C° 0.1 mm 1 mps 740 mmHg 93%

    27 September, Wednesday

    Time Temperature Precipitation Wind Pressure Humidity
    00:00 +13°C° 0.1 mm 1 mps 740 mmHg 93%
    01:00 +13°C° 0.1 mm 1 mps 740 mmHg 93%
    02:00 +12°C° 0 mm 1 mps 740 mmHg 93%
    03:00 +12°C° 0 mm 1 mps 740 mmHg 93%
    04:00 +12°C° 0 mm 1 mps 740 mmHg 93%
    05:00 +12°C° 0 mm 1 mps 740 mmHg 92%
    06:00 +13°C° 0 mm 1 mps 741 mmHg 91%
    07:00 +13°C° 0 mm 1 mps 741 mmHg 90%
    08:00 +15°C° 0 mm 1 mps 741 mmHg 83%
    09:00 +17°C° 0 mm 2 mps 741 mmHg 75%
    10:00 +20°C° 0 mm 2 mps 741 mmHg 67%
    11:00 +20°C° 0.1 mm 2 mps 741 mmHg 64%
    12:00 +21°C° 0.1 mm 3 mps 741 mmHg 61%
    13:00 +22°C° 0.1 mm 3 mps 741 mmHg 58%
    14:00 +22°C° 0.1 mm 3 mps 741 mmHg 60%
    15:00 +21°C° 0.1 mm 3 mps 741 mmHg 62%
    16:00 +21°C° 0.1 mm 3 mps 741 mmHg 65%
    17:00 +19°C° 0 mm 3 mps 741 mmHg 72%
    18:00 +17°C° 0 mm 2 mps 741 mmHg 79%
    19:00 +15°C° 0 mm 2 mps 741 mmHg 86%
    20:00 +15°C° 0 mm 2 mps 741 mmHg 87%
    21:00 +14°C° 0 mm 2 mps 741 mmHg 88%
    22:00 +14°C° 0 mm 2 mps 741 mmHg 89%
    23:00 +13°C° 0 mm 2 mps 742 mmHg 90%

    28 September, Thursday

    Time Temperature Precipitation Wind Pressure Humidity
    00:00 +13°C° 0 mm 2 mps 742 mmHg 90%
    01:00 +13°C° 0 mm 1 mps 742 mmHg 91%
    02:00 +13°C° 0 mm 1 mps 742 mmHg 91%
    03:00 +12°C° 0 mm 1 mps 742 mmHg 91%
    04:00 +12°C° 0 mm 1 mps 742 mmHg 91%
    05:00 +12°C° 0 mm 1 mps 742 mmHg 89%
    06:00 +13°C° 0 mm 1 mps 742 mmHg 88%
    07:00 +13°C° 0 mm 1 mps 742 mmHg 86%
    08:00 +15°C° 0 mm 1 mps 743 mmHg 78%
    09:00 +18°C° 0 mm 1 mps 743 mmHg 70%
    10:00 +19°C° 0 mm 2 mps 743 mmHg 61%
    11:00 +20°C° 0 mm 2 mps 743 mmHg 59%
    12:00 +21°C° 0 mm 3 mps 743 mmHg 57%
    13:00 +21°C° 0 mm 3 mps 742 mmHg 55%
    14:00 +21°C° 0.1 mm 3 mps 742 mmHg 58%
    15:00 +20°C° 0.1 mm 3 mps 742 mmHg 60%
    16:00 +20°C° 0.1 mm 3 mps 742 mmHg 63%
    17:00 +18°C° 0 mm 2 mps 742 mmHg 69%
    18:00 +16°C° 0 mm 2 mps 742 mmHg 75%
    19:00 +15°C° 0 mm 2 mps 743 mmHg 81%
    20:00 +14°C° 0 mm 2 mps 743 mmHg 83%
    21:00 +14°C° 0 mm 2 mps 743 mmHg 84%
    22:00 +13°C° 0 mm 1 mps 743 mmHg 85%
    23:00 +13°C° 0 mm 1 mps 743 mmHg 86%
    Show more